Regional Weather Roundup
Issued by NWS Upton, NY

Current Version | Previous Version | Graphics & Text | Print | Product List | Glossary Off
Versions: 1 2 3 4 5 6 7 8 9 10 11 12 13 14 15 16 17 18 19 20 21 22 23 24 25 26 27 28 29 30 31 32 33 34 35 36 37 38 39 40 41 42 43 44 45 46 47 48 49 50

000
ASUS41 KOKX 032305
RWROKX

REGIONAL WEATHER ROUNDUP
NATIONAL WEATHER SERVICE NEW YORK NY
600 PM EST TUE MAR 03 2015

NOTE: "FAIR" INDICATES FEW OR NO CLOUDS BELOW 12,000 FEET WITH NO
SIGNIFICANT WEATHER AND/OR OBSTRUCTIONS TO VISIBILITY.

NYZ071-072-176-178-NJZ106-104-040000-
NEW YORK CITY METRO AREA


CITY           SKY/WX    TMP DP  RH WIND       PRES   REMARKS
CENTRAL PARK   LGT SNOW  30  24  78 VRB6      30.16F WCI  24
LAGUARDIA APRT LGTSLEET  30  27  86 S10       30.14F FOG     WCI  21
KENNEDY INTL   LGTSLEET  32  27  81 S13       30.17F WCI  22
NEWARK/LIBERTY LGTSLEET  29  25  85 S7        30.15F FOG     WCI  22
BRNX BOT. GARD   N/A    N/A N/A N/A SE7       30.14F
TETERBORO      LGTSLEET  28  25  88 S8        30.14F WCI  20
$$

NYZ177-179-078>081-040000-
LONG ISLAND NEW YORK

CITY           SKY/WX    TMP DP  RH WIND       PRES   REMARKS
FARMINGDALE    SNOW      29  26  89 S12       30.16F VSB 1/2 WCI  19
ISLIP          LGT SNOW  29  21  72 S8        30.15F VSB 3/4 WCI  21
SHIRLEY        LGT SNOW  30  22  72 S9        30.18F WCI  22
WESTHAMPTON    LGT SNOW  30  21  69 S8        30.19F WCI  22
MONTAUK POINT    N/A     30  23  75 S8        30.19F WCI  22
$$

NYZ052-065-067-040000-
HUDSON VALLEY

CITY           SKY/WX    TMP DP  RH WIND       PRES   REMARKS
WHITE PLAINS   SNOW      24  22  91 SE10      30.11F VSB 1/2 WCI  14
NEWBURGH       NOT AVBL
MONTGOMERY     LGT SNOW  25  23  92 S6        30.07F FOG     WCI  18
POUGHKEEPSIE   LGT SNOW  25  21  85 SE5       30.10F VSB 3/4 WCI  19
ALBANY         LGT SNOW  24  19  81 S18G24    29.99F VSB 1   WCI  10
$$

NJZ001-105-106-008-010-013-015-019>022-104-040000-
NEW JERSEY

CITY           SKY/WX    TMP DP  RH WIND       PRES   REMARKS
NEWARK/LIBERTY LGTSLEET  29  25  85 S7        30.15F FOG     WCI  22
TETERBORO      LGTSLEET  28  25  88 S8        30.14F WCI  20
CALDWELL       MIX PCPN  27  22  81 S10G17    30.14F WCI  17
MORRISTOWN     LGT SNOW  28  25  86 S9        30.14F WCI  20
SOMERVILLE     MIX PCPN  28  25  88 SE5       30.12F FOG     WCI  23
SUSSEX         MIX PCPN  25  21  85 SW5       30.07F FOG     WCI  19
ANDOVER          N/A     24  22  91 S6        30.06F WCI  17
TRENTON        FRZ RAIN  28  24  85 S7        30.12F WCI  21
MILLVILLE      MIX PCPN  32  29  88 S5        30.13F FOG     WCI  27
ATLANTIC CITY  CLOUDY    31  29  92 E5        30.14F FOG     WCI  26
WRIGHTSTOWN    FRZ RAIN  32  30  93 S6        30.10F WCI  26
TOMS RIVER     CLOUDY    30  28  93 SE5       30.15F WCI  25
BELMAR         CLOUDY    30  25  80 S3        30.15F
$$

PAZ047>061-062-071-040000-
EASTERN PENNSYLVANIA

CITY           SKY/WX    TMP DP  RH WIND       PRES   REMARKS
PHILADELPHIA   FRZ RAIN  32  29  88 S6        30.14F FOG     WCI  26
ALLENTOWN      SLEET     27  21  80 SE6       30.08F WCI  20
SCRANTON       MIX PCPN  25  17  72 S6        29.93F WCI  18
$$

CTZ002-004>006-009-010-012-RIZ004-006-007-MAZ004-011-015-040000-
SOUTHERN NEW ENGLAND
 IN CT

CITY           SKY/WX    TMP DP  RH WIND       PRES   REMARKS
BRADLEY INTL   LGT SNOW  25  20  81 S14       30.13F VSB 3/4 WCI  13
HARTFORD       LGT SNOW  23  21  92 S8        30.17F VSB 3/4 WCI  14
DANBURY        LGT SNOW  23  18  81 SE6       30.12F VSB 3/4 WCI  16
WTRBRY/OXFORD  LGT SNOW  21  12  68 S10       30.12F VSB 1   WCI  10
BRIDGEPORT     LGT SNOW  25  23  92 SE8       30.17F FOG     WCI  16
MERIDEN        LGT SNOW  23  19  85 S9        30.16F VSB 3/4 WCI  13
NEW HAVEN      LGT SNOW  25  21  85 SE8       30.17F VSB 1   WCI  16
CHESTER        SNOW      25  21  86 S9        30.16F VSB 1/2 WCI  15
GROTON         LGT SNOW  26  24  92 S9        30.18F VSB 1   WCI  17
WILLIMANTIC    LGT SNOW  23  19  85 S9        30.17F VSB 3/4 WCI  13

 IN RI

CITY           SKY/WX    TMP DP  RH WIND       PRES   REMARKS
PROVIDENCE     LGT SNOW  26  19  74 S13       30.19F WCI  15
BLOCK ISLAND   CLOUDY    30  19  64 SW15G23   30.19F WCI  19
WESTERLY       LGT SNOW  28  21  75 S8        30.19F WCI  20

 IN MA

CITY           SKY/WX    TMP DP  RH WIND       PRES   REMARKS
BOSTON         CLOUDY    28  12  51 S18       30.16F WCI  15
WORCESTER      LGT SNOW  22  15  75 S14       30.07F WCI   9
WESTFIELD      LGT SNOW  23  18  81 S12       30.10F WCI  12
PROVINCETOWN   CLOUDY    27  12  54 S15       30.21F WCI  15
NANTUCKET      CLOUDY    28  15  58 S14       30.24F WCI  17
$$

ANZ330-335-338-340-345-350-353-355-040000-
COASTAL MARINE OBSERVATIONS


STATION/POSITION TIME  SKY/WX   TEMP    WIND        PRES    VSBY  WAVE
                                AIR SEA DIR/SP/G                  HT/PER
                 (UTC)          (F)     (DEG/KT/KT) (MB)    (MI)  (FT/S)
NY HARB ENTRANCE 2300            32 38  160/ 14/ 16 1021.3          2/ 4
4S FIRE IS       2200               33                N/A           1/10
20S FIRE ISLAND  2200               36              1023.5          1/10
23SW MTP         2300                                 N/A           2/ 3
HUDSON CANYON    NOT AVBL
EXECUTION ROCKS  NOT AVBL
WESTERN LI SOUND NOT AVBL
CENTRAL LI SOUND NOT AVBL
EASTERN LI SOUND NOT AVBL
ROBBINS REEF     2300            28     190/ 11/ 13 1020.1
$$


>>>>>>>>>>>>>>>>>>>>>>>>>>>> KEY <<<<<<<<<<<<<<<<<<<<<<<<<<<
>                                                          <
>     SKY/WX - SKY CONDITION/PRESENT WEATHER               <
>     TMP    - TEMPERATURE IN FAHRENHEIT                   <
>     DP     - DEWPOINT IN FAHRENHEIT                      <
>     RH     - RELATIVE HUMIDITY IN PERCENT                <
>     WIND   - DIRECTION AND SPEED IN MPH                  <
>     PRES   - MEAN SEA LEVEL PRESSURE IN INCHES OF HG     <
>     WCI    - WIND CHILL INDEX                            <
>     VSB    - VISIBILITY IN MILES                         <
>     HX     - HEAT INDEX                                  <
>     TC     - TEMPERATURE IN CELSIUS                      <
>     VRB    - VARIABLE WIND DIRECTION                     <
>                                                          <
>>>>>>>>>>>>>>>>>>>>>>>>>>>> KEY <<<<<<<<<<<<<<<<<<<<<<<<<<<




USA.gov is the U.S. government's official web portal to all federal, state and local government web resources and services.